Location: Alpine Heights
(32.8181°N, 116.7809°W)
Time: 00:39:28
(UTC+00:00)

Helios 1B - Pass Details

Date: 14 April 2021
Orbit: 620 x 622 km, 98.3° (Epoch: 15 May)

Event Time Altitude Azimuth Distance (km) Brightness Sun altitude
Rises 12:22:20 0° 171° (S) 2,884 7.9 -12.1°
Reaches altitude 10° 12:24:31 10° 174° (S) 1,982 7.0 -11.7°
Maximum altitude 12:28:49 70° 258° (WSW) 661 4.5 -10.8°
Drops below altitude 10° 12:33:08 10° 343° (NNW) 1,993 7.2 -10.0°
Sets 12:35:21 0° 345° (NNW) 2,903 8.1 -9.5°
